Back to catalog

SL-6 R/B(2)

AliveHEO
NORAD 7629·ROCKET BODY·🇷🇺 Russia

Launched Jan 30, 1975 from Plesetsk Cosmodrome

Loading…

Next Passes (next 24 hours)

TLE

FreshSource: Space-Track

Epoch: Sep 14, 2026, 03:33 UTC

1 07629U 75007D   26257.14854374 -.00000110  00000-0  00000-0 0  9994
2 07629  68.9430 227.7384 5181807 299.3455 298.4242  2.00856556239783

Track SL-6 R/B(2) in real time with AllMySat

Download on the App Store